Retour au catalogue

BREEZE-M DEB

ActifHEO
NORAD 38610·DEBRIS·🇷🇺 Russia

Lancé Mar 14, 2008 depuis Baikonur Cosmodrome

Loading…

Prochains Passages (prochaines 24 heures)

TLE

FraisSource: Space-Track

Époque: Sep 14, 2026, 05:33 UTC

1 38610U 08011BH  26257.23136168 -.00000104  00000-0  00000+0 0  9995
2 38610  49.3097  25.1894 6361634 207.5960  95.2839  3.05984843174630

Suivez BREEZE-M DEB en temps réel avec AllMySat

Download on the App Store